User: anonymous
Location: Ciudad Delicias
(28.2170°N, 105.4670°W)
Time: 02:26:18
(UTC-07:00)
Language:

ETS-7 - Orbit

View from above orbital plane
View from above orbital plane
View from above satellite
View from above satellite

Ground track
Ground track

The orbit data is extracted from the following two-line orbital elements,

1 25064U 97074B   14210.80212078  .00012692  00000-0  22153-3 0  2135
2 25064 034.9644 349.2429 0003399 101.1701 054.1183 15.49806488927785
Epoch (UTC): 29 July 2014 19:15:03
Eccentricity: 0.0003399
inclination: 34.9644°
perigee height: 415 km
apogee height: 419 km
right ascension of ascending node: 349.2429°
argument of perigee: 101.1701°
revolutions per day: 15.49806488
mean anomaly at epoch: 54.1183°
orbit number at epoch: 92778

The dashed part of the orbit path shows where the satellite is in the earth's shadow,  

DLR